Temperature
8 7 7 8 8 7 7 9 9 10 10 11 11 10 9 8 7 7 7 7 7 7 7 7 7 7 7 7 7 7 7 7 7 6 6 6 6 6 6 6 6 5 5 5
6 6 6 6 7 7 7 8 8 9 9 10 9 8 8 8 7 7 7 6 7 7 7 7 6 6 7 7 6 6 6 6 6 6 6 6 6 5 5 5 5 5 5 5
8 6 6 7 8 8 7 7 8 8 10 9 8 8 8 7 7 7 6 6 6 6 6 6 6 6 6 6 6 6 6 6 6 5 5 5 5 5 5 5 4 4 4 4
7 6 7 10 8 8 8 8 8 8 8 8 8 7 7 6 6 6 6 6 6 6 6 6 6 5 5 5 5 5 5 5 5 5 5 5 4 4 4 4 4 4 4 4
6 7 8 9 7 7 7 8 7 7 7 7 6 6 6 6 6 6 6 6 5 5 5 5 5 5 5 5 5 4 4 4 4 4 4 4 4 4 4 4 3 3 3 3
6 6 8 10 7 6 7 8 7 6 7 6 6 7 8 6 6 6 5 5 5 5 5 5 5 4 4 4 4 4 4 4 4 4 4 4 4 3 3 3 3 3 3 3
5 6 8 8 5 5 7 9 6 5 6 5 6 7 6 6 5 5 5 5 5 4 4 4 4 4 4 4 4 3 3 3 3 3 3 3 3 3 3 3 2 2 2 2
5 5 7 6 5 7 8 6 5 5 5 5 5 5 5 5 5 4 4 4 4 4 4 4 3 3 3 3 3 3 3 3 3 3 3 3 2 2 2 2 2 2 2 2
6 7 7 5 5 6 5 5 5 5 5 5 4 4 4 4 4 4 4 3 3 3 3 3 3 3 3 3 3 3 3 2 2 2 2 2 2 2 2 2 1 1 1 1
5 5 5 4 4 5 5 5 5 5 4 4 4 4 3 3 3 3 3 3 3 3 3 3 2 2 2 2 2 2 2 2 2 2 2 2 1 1 1 1 1 1 1 1
4 5 4 4 4 5 4 4 4 4 4 3 3 3 3 3 3 3 2 2 2 2 2 2 2 2 2 2 2 1 1 1 1 1 1 1 1 1 1 1 1 1 0 0
5 6 5 5 5 4 4 4 4 3 3 3 3 3 2 2 2 2 2 2 2 2 2 2 2 2 1 1 1 1 1 1 1 1 1 0 0 1 1 1 0 0 0 -0
5 4 4 4 4 4 3 3 3 3 2 2 2 2 2 1 1 1 1 1 1 1 1 1 1 1 1 1 1 0 0 0 0 0 0 -0 -0 -0 -0 0 0 0 -0 -0
3 3 2 3 2 3 3 2 2 2 2 2 1 1 1 1 1 1 1 1 0 1 1 1 1 1 0 0 0 0 -0 -0 -0 -0 -1 -1 -1 -1 -1 -1 -1 -0 -0 -1
2 2 2 2 2 2 2 2 1 1 1 1 1 1 0 0 0 0 0 0 0 0 0 0 0 0 -0 -0 -0 -0 -1 -1 -1 -1 -1 -1 -1 -1 -1 -2 -2 -1 -1 -1
1 1 1 1 1 1 1 1 0 0 0 0 0 0 -0 -0 -0 -0 -0 -0 -0 -0 -0 -1 -1 -0 -1 -1 -1 -1 -1 -1 -1 -2 -2 -2 -2 -2 -2 -2 -2 -2 -2 -2
-0 0 0 0 0 0 0 0 0 -0 -0 -0 -0 -0 -1 -1 -1 -1 -1 -1 -1 -1 -1 -1 -1 -1 -1 -1 -1 -1 -2 -2 -2 -2 -2 -2 -2 -2 -2 -2 -2 -2 -2 -2
0 0 0 0 -0 -0 -0 -0 -0 -0 -0 -0 -1 -1 -1 -1 -1 -1 -1 -1 -1 -1 -1 -1 -1 -1 -1 -1 -2 -2 -2 -2 -2 -2 -2 -2 -3 -3 -3 -3 -3 -3 -3 -3
-0 -0 -0 -0 -0 -0 -0 -0 -0 -0 -1 -1 -1 -1 -1 -1 -1 -1 -1 -2 -2 -1 -1 -1 -1 -2 -2 -2 -2 -2 -2 -3 -3 -3 -3 -3 -3 -3 -3 -3 -3 -3 -3 -3
-0 -0 -0 -0 -1 -1 -1 -1 -1 -1 -1 -1 -1 -1 -1 -1 -1 -2 -2 -2 -2 -2 -2 -2 -2 -2 -2 -2 -3 -3 -3 -3 -3 -3 -3 -4 -4 -4 -4 -4 -4 -4 -4 -4
-1 -1 -1 -1 -1 -1 -1 -1 -1 -1 -1 -1 -2 -2 -2 -2 -2 -2 -2 -2 -2 -2 -2 -2 -2 -2 -2 -3 -3 -3 -3 -3 -4 -4 -4 -4 -4 -4 -4 -4 -4 -4 -4 -4
-1 -1 -1 -1 -1 -1 -2 -2 -2 -2 -2 -2 -2 -2 -2 -2 -2 -2 -2 -2 -2 -2 -3 -3 -3 -3 -3 -3 -3 -4 -4 -4 -4 -4 -4 -4 -4 -4 -4 -4 -4 -4 -4 -4
-2 -2 -2 -2 -2 -2 -2 -2 -2 -2 -2 -2 -2 -2 -3 -3 -3 -3 -3 -3 -3 -3 -3 -3 -3 -3 -3 -4 -4 -4 -4 -4 -4 -4 -4 -4 -4 -4 -4 -4 -4 -4 -5 -4
-2 -2 -2 -2 -3 -3 -2 -2 -2 -3 -3 -3 -3 -3 -3 -3 -3 -3 -3 -3 -3 -3 -4 -3 -3 -4 -4 -4 -4 -4 -4 -4 -4 -4 -4 -4 -5 -5 -5 -5 -5 -5 -5 -5
-3 -3 -3 -3 -3 -3 -3 -3 -3 -3 -3 -3 -3 -3 -3 -3 -3 -3 -4 -4 -4 -4 -4 -4 -4 -4 -4 -4 -4 -4 -4 -4 -4 -4 -5 -5 -5 -5 -5 -5 -5 -5 -5 -5
-3 -3 -3 -3 -3 -3 -3 -3 -4 -3 -4 -4 -3 -3 -3 -4 -4 -4 -4 -4 -4 -4 -4 -4 -4 -4 -4 -5 -5 -5 -5 -5 -5 -5 -5 -5 -5 -5 -5 -5 -5 -5 -5 -5
-3 -3 -4 -3 -3 -3 -4 -4 -4 -4 -4 -4 -4 -4 -4 -4 -4 -4 -4 -4 -4 -4 -4 -4 -4 -5 -5 -5 -5 -5 -5 -5 -5 -5 -5 -5 -5 -5 -5 -5 -5 -5 -5 -5
Wind_Speed
9 8 7 10 10 11 13 12 10 10 11 11 8 7 6 5 4 4 4 4 3 3 2 3 3 4 4 4 4 4 5 6 6 6 6 7 7 7 7 7 8 8 8 8
7 6 8 11 14 15 15 15 16 16 16 11 9 7 7 6 5 5 5 4 4 4 4 4 4 4 4 5 4 5 6 6 6 6 7 7 7 7 7 8 8 8 8 9
6 4 6 10 12 14 11 12 12 14 12 6 6 8 8 6 6 6 5 5 5 5 5 5 5 5 5 5 5 5 6 7 6 7 7 7 7 7 8 8 8 9 9 9
4 4 8 4 1 7 11 11 13 12 10 7 7 6 6 5 6 6 5 5 5 5 5 5 5 5 5 5 5 6 6 7 7 7 8 8 8 8 8 8 8 9 9 10
4 7 10 7 4 5 7 7 9 12 10 7 4 4 5 5 5 6 5 5 5 5 5 5 5 5 5 6 6 6 7 7 7 7 8 8 8 9 8 8 8 9 9 9
6 7 8 3 3 4 4 5 3 6 7 5 3 5 4 2 3 4 4 4 4 4 5 5 5 5 6 6 6 7 7 7 7 7 8 8 9 9 8 8 9 8 9 9
11 10 10 2 3 6 6 3 1 4 5 5 6 6 4 3 4 4 4 5 4 5 5 5 5 5 6 7 8 7 7 7 7 7 8 8 8 8 8 8 8 9 10 9
9 10 9 5 7 7 4 0 2 3 4 5 6 6 5 5 5 5 5 5 5 5 6 5 5 5 7 8 8 7 7 8 8 8 7 7 8 7 7 8 8 9 9 9
9 8 2 6 6 4 3 4 4 4 4 5 6 7 6 6 6 6 6 5 5 5 6 6 5 5 8 8 7 7 7 8 8 8 7 7 7 7 7 7 7 8 8 8
8 10 8 8 8 7 7 6 5 5 5 5 7 8 8 7 7 7 6 6 5 5 6 7 6 6 8 8 7 7 8 8 8 8 8 7 6 6 6 7 7 8 8 8
11 11 8 8 9 9 7 7 7 7 7 8 8 9 8 8 8 7 7 6 6 6 7 8 7 7 7 7 6 7 8 8 8 7 8 7 7 7 8 9 9 9 8 8
12 10 8 9 7 7 8 9 9 9 9 8 8 9 8 8 7 7 6 6 6 7 8 8 8 8 7 6 6 7 8 8 7 7 7 7 8 8 10 12 13 15 15 14
13 9 9 9 7 6 8 9 9 9 9 9 8 8 8 7 6 6 6 7 7 8 8 8 8 8 7 6 6 7 8 8 7 7 7 7 7 8 9 8 11 14 15 16
10 8 8 8 8 7 7 8 7 7 7 7 7 6 6 7 6 6 7 7 7 7 7 7 8 8 7 6 7 8 8 8 8 8 8 8 8 8 8 9 9 9 9 13
10 9 9 7 7 6 5 4 5 6 6 5 5 5 6 6 7 7 6 6 6 7 7 7 8 9 8 7 7 8 8 7 7 8 8 8 8 8 8 9 9 9 9 9
6 7 8 8 8 6 5 5 6 7 6 6 6 6 6 7 7 7 6 6 6 7 7 8 9 10 8 7 8 8 8 10 10 9 8 8 8 8 8 9 9 9 9 9
7 7 6 6 8 7 7 7 7 8 7 7 7 7 6 6 7 7 7 7 7 8 9 9 10 10 8 8 8 8 8 9 10 9 9 9 8 9 9 9 9 9 9 9
9 9 8 8 8 8 8 8 7 8 8 7 6 6 7 7 8 9 8 8 8 9 10 10 10 9 9 9 8 7 8 8 8 8 9 8 9 9 9 9 10 11 10 10
8 8 8 8 8 8 8 8 8 7 7 6 7 8 9 9 9 9 9 9 10 11 10 9 10 10 10 10 9 8 8 9 9 9 9 10 10 9 9 9 10 10 9 9
6 6 6 6 6 7 7 7 7 7 7 7 8 8 10 10 9 9 9 10 10 9 10 10 10 10 10 10 9 8 9 9 10 10 9 9 9 9 9 9 9 10 9 9
5 5 5 5 5 6 7 7 7 8 8 7 8 9 10 11 10 9 9 11 11 9 10 12 10 9 9 9 9 9 9 9 10 10 9 9 9 9 9 9 9 9 9 8
5 5 6 6 6 7 7 6 7 8 9 9 9 10 10 11 11 10 11 11 12 11 9 9 9 10 11 11 9 9 10 10 10 9 9 9 9 9 9 9 9 8 8 8
6 6 7 7 8 8 8 8 8 9 10 10 11 11 11 11 9 9 11 9 9 11 10 10 11 13 15 11 9 10 10 11 10 10 9 9 9 9 9 10 9 8 8 8
7 8 8 8 8 8 10 11 9 9 10 11 11 11 11 10 10 10 10 12 12 13 11 12 15 16 15 10 10 10 10 10 10 9 9 9 9 9 9 9 9 8 8 9
8 8 9 8 9 9 10 10 10 10 10 9 11 11 10 9 10 10 10 11 13 13 11 12 15 16 12 10 10 10 9 9 9 9 9 9 9 9 9 8 8 8 8 8
10 9 9 10 10 9 9 8 9 9 9 9 10 9 9 8 10 10 10 11 12 13 11 10 10 10 9 9 10 10 9 10 10 9 9 9 9 9 8 8 9 8 8 7
9 9 8 9 9 9 9 9 9 10 9 10 10 10 9 9 9 9 11 10 10 10 9 9 9 9 9 9 9 9 9 8 8 8 8 8 8 8 8 9 8 7 7 7
Wind_Direction
262 270 264 256 245 224 221 230 242 257 261 267 266 258 253 251 247 242 240 236 237 250 266 280 287 288 287 285 282 277 273 271 272 274 271 266 263 260 257 254 253 254 254 253
268 258 259 264 254 240 236 239 245 259 267 271 268 263 259 255 247 242 244 245 251 263 275 283 292 296 293 290 287 281 274 274 278 277 272 267 265 264 261 259 259 257 255 255
267 281 283 261 242 223 223 224 228 241 253 259 257 254 254 253 244 243 245 252 258 268 277 282 287 289 289 292 293 284 279 281 282 278 273 270 268 265 262 262 261 259 259 257
268 272 249 253 191 217 226 239 232 245 258 259 263 273 269 253 247 248 250 257 265 273 280 285 285 285 288 289 287 284 284 285 285 281 277 276 270 267 266 264 262 262 261 259
233 256 269 268 219 192 211 251 237 239 252 261 276 276 262 250 248 252 257 264 271 276 280 282 282 284 284 282 283 283 285 287 286 282 278 275 272 270 270 267 265 263 262 260
225 243 254 260 152 172 196 252 234 223 240 249 225 255 268 258 252 261 269 274 280 285 284 282 286 286 279 280 282 284 289 291 290 283 277 275 275 274 271 267 267 268 264 262
228 242 260 258 151 162 214 260 162 222 232 224 231 264 304 286 271 271 278 280 282 282 281 285 292 286 280 282 283 289 293 291 288 283 278 277 276 273 270 268 268 267 266 264
211 228 246 158 156 197 241 13 214 230 232 232 249 273 276 268 269 275 280 278 278 278 282 288 287 281 281 281 287 291 290 288 288 287 283 276 273 272 269 267 267 268 268 268
210 228 276 175 202 233 247 247 244 242 242 240 255 265 269 267 268 271 273 275 274 274 283 287 280 274 278 286 292 290 286 286 288 288 282 274 269 270 270 266 266 269 269 271
246 255 254 246 249 252 249 247 250 249 251 250 257 264 266 269 270 272 274 275 275 274 279 285 285 278 276 286 287 282 282 285 287 287 285 279 272 266 264 265 266 267 269 271
248 260 270 257 246 248 245 248 257 259 257 251 255 261 265 268 269 270 274 277 271 267 273 281 288 286 284 283 280 278 280 281 283 282 282 282 275 268 264 263 261 266 270 270
249 248 246 261 255 246 244 249 253 257 261 258 253 261 264 264 265 266 271 276 272 270 273 280 286 287 288 284 276 276 281 283 283 284 284 281 282 281 257 254 263 260 261 263
257 268 265 271 264 249 247 252 255 252 253 258 259 257 257 263 262 264 268 268 268 272 277 282 284 286 288 284 275 273 277 282 284 281 280 281 281 284 289 279 260 260 262 263
252 258 262 257 257 257 257 257 255 254 253 252 254 255 254 258 260 261 265 268 273 275 276 279 281 284 288 283 276 274 277 276 275 277 276 276 276 276 278 283 289 286 271 266
245 239 246 260 264 265 261 257 255 257 259 259 256 254 251 253 259 264 271 275 276 277 278 281 282 284 289 284 278 278 278 278 277 277 275 274 273 273 272 273 275 281 285 279
246 246 247 252 255 255 252 247 250 257 260 261 261 258 255 256 263 270 272 270 270 276 282 285 282 285 288 284 281 279 276 271 272 277 276 272 269 268 268 269 272 274 276 278
237 244 242 246 249 249 244 243 247 254 258 258 259 260 260 262 268 271 272 271 268 271 276 275 277 281 282 278 275 276 278 277 271 272 271 269 268 267 268 268 269 271 271 271
235 243 245 247 251 251 253 252 252 253 255 259 262 259 255 255 262 270 276 280 280 279 275 271 273 277 277 275 272 272 274 276 276 274 273 271 271 269 269 269 269 270 274 273
238 245 247 246 246 247 249 252 253 254 255 252 249 252 256 259 262 268 274 276 276 280 282 276 271 273 276 275 273 271 271 273 274 274 272 273 273 270 268 267 268 268 271 271
245 247 247 250 248 241 244 250 253 255 254 251 253 259 264 266 266 267 268 268 267 268 277 282 282 279 277 277 273 272 270 272 274 276 275 273 272 272 271 269 268 269 269 268
253 254 253 255 259 254 248 249 252 256 260 255 252 257 263 269 269 267 267 273 276 271 271 273 272 273 273 275 275 272 271 272 273 273 273 274 274 273 272 270 270 269 269 269
268 264 263 264 265 269 267 261 256 258 263 262 260 260 262 267 269 268 262 262 273 276 277 275 272 269 271 277 274 271 271 271 272 272 271 271 271 273 273 271 271 270 269 269
266 264 265 266 267 272 276 271 262 259 260 261 261 261 261 263 266 267 273 271 270 272 273 272 270 273 278 278 273 271 270 270 270 269 269 269 268 269 270 270 269 268 268 267
269 268 268 270 271 271 273 273 268 264 263 265 263 262 262 267 269 261 260 272 275 276 275 273 274 277 280 275 272 270 269 269 269 269 269 269 268 267 267 267 267 267 267 266
267 268 269 268 268 268 269 273 275 273 271 269 269 267 262 256 260 270 272 272 272 274 275 275 276 277 276 271 269 268 268 268 268 269 268 267 267 267 267 267 266 266 266 265
267 267 268 265 265 268 270 270 270 271 272 273 274 273 270 264 261 265 270 271 271 273 272 274 274 274 270 268 268 268 269 271 272 269 267 267 267 267 267 266 265 264 264 263
271 270 270 271 268 263 261 261 264 267 268 268 274 278 277 274 271 270 271 272 274 273 272 271 271 270 270 269 268 268 268 268 267 267 267 266 265 265 266 265 265 263 262 260
Height
1515 1515 1516 1512 1512 1513 1513 1506 1504 1494 1495 1490 1492 1494 1495 1496 1496 1496 1496 1495 1496 1496 1495 1495 1494 1494 1493 1492 1492 1491 1489 1488 1487 1486 1485 1484 1483 1483 1481 1480 1479 1478 1477 1475
1516 1515 1514 1511 1506 1506 1506 1503 1500 1497 1493 1489 1491 1493 1493 1493 1493 1493 1493 1493 1493 1493 1493 1492 1492 1491 1490 1489 1488 1487 1485 1484 1483 1482 1480 1479 1478 1477 1476 1475 1473 1472 1471 1470
1508 1512 1511 1501 1493 1495 1496 1494 1493 1491 1486 1487 1489 1489 1489 1490 1490 1490 1490 1490 1490 1490 1489 1489 1488 1487 1486 1485 1484 1482 1481 1480 1478 1477 1475 1474 1472 1471 1470 1469 1468 1466 1465 1464
1509 1510 1504 1484 1488 1488 1489 1487 1488 1486 1485 1486 1486 1486 1486 1486 1486 1487 1487 1487 1487 1486 1486 1485 1484 1483 1482 1481 1479 1478 1477 1475 1473 1471 1470 1468 1467 1465 1464 1463 1461 1460 1459 1458
1508 1500 1487 1483 1486 1487 1487 1483 1484 1484 1483 1485 1485 1485 1484 1483 1483 1484 1484 1484 1483 1483 1482 1481 1480 1479 1477 1476 1475 1473 1472 1470 1468 1466 1464 1463 1461 1460 1459 1457 1456 1454 1453 1452
1505 1499 1487 1476 1483 1485 1486 1480 1480 1481 1481 1482 1483 1482 1479 1480 1480 1480 1480 1480 1479 1478 1478 1477 1476 1474 1473 1471 1470 1468 1467 1465 1463 1461 1459 1458 1456 1454 1453 1452 1450 1448 1447 1445
1499 1494 1478 1478 1483 1485 1483 1474 1478 1478 1479 1480 1480 1479 1479 1478 1477 1477 1477 1476 1476 1474 1473 1472 1471 1470 1468 1467 1465 1464 1462 1460 1458 1456 1454 1453 1451 1449 1447 1446 1444 1442 1441 1439
1493 1491 1480 1478 1480 1479 1474 1476 1476 1476 1476 1476 1476 1476 1475 1475 1474 1474 1473 1473 1472 1470 1469 1468 1467 1465 1463 1462 1460 1459 1457 1455 1453 1451 1449 1447 1445 1443 1442 1440 1438 1436 1434 1433
1479 1474 1473 1474 1474 1473 1474 1474 1473 1473 1473 1473 1473 1473 1472 1472 1471 1470 1469 1468 1467 1466 1465 1464 1462 1461 1459 1458 1456 1453 1452 1450 1448 1446 1444 1442 1440 1438 1436 1434 1432 1430 1428 1426
1476 1470 1471 1471 1470 1471 1471 1470 1470 1470 1471 1470 1470 1469 1468 1468 1467 1466 1465 1464 1463 1461 1460 1459 1458 1456 1455 1453 1451 1449 1447 1445 1443 1441 1439 1437 1435 1433 1430 1428 1426 1424 1422 1420
1470 1467 1468 1466 1466 1466 1466 1467 1467 1466 1466 1465 1465 1464 1464 1463 1462 1461 1460 1459 1458 1456 1455 1454 1453 1451 1450 1448 1446 1444 1442 1440 1438 1435 1433 1431 1429 1427 1424 1422 1421 1419 1416 1414
1460 1461 1462 1461 1461 1462 1462 1461 1461 1461 1460 1460 1460 1459 1458 1457 1457 1456 1455 1454 1453 1452 1450 1449 1448 1446 1444 1443 1441 1439 1436 1435 1432 1430 1427 1425 1422 1420 1417 1416 1414 1412 1410 1408
1456 1456 1457 1456 1456 1456 1456 1456 1456 1455 1455 1455 1454 1454 1453 1452 1452 1451 1450 1449 1448 1447 1445 1444 1442 1441 1439 1437 1435 1433 1431 1429 1427 1424 1421 1419 1416 1413 1410 1409 1407 1405 1403 1401
1451 1452 1451 1451 1451 1451 1451 1450 1450 1450 1449 1449 1448 1448 1448 1447 1446 1445 1445 1444 1443 1442 1440 1439 1437 1436 1434 1432 1430 1428 1426 1423 1421 1418 1416 1413 1410 1408 1405 1402 1399 1397 1396 1395
1446 1446 1446 1446 1446 1445 1445 1445 1445 1444 1444 1444 1443 1443 1443 1442 1441 1441 1440 1439 1438 1436 1435 1434 1432 1430 1429 1427 1425 1422 1420 1417 1415 1412 1409 1407 1404 1401 1399 1396 1393 1391 1389 1387
1441 1441 1441 1441 1440 1440 1440 1440 1440 1440 1440 1439 1439 1439 1438 1438 1437 1436 1435 1434 1433 1431 1430 1428 1427 1425 1423 1421 1418 1416 1413 1411 1409 1405 1403 1400 1398 1395 1392 1390 1387 1385 1383 1381
1437 1436 1436 1436 1436 1435 1436 1436 1436 1436 1435 1435 1435 1434 1434 1433 1432 1431 1430 1429 1428 1426 1425 1423 1421 1419 1417 1415 1412 1409 1407 1404 1402 1399 1396 1393 1391 1388 1386 1383 1381 1379 1377 1375
1431 1432 1432 1432 1431 1431 1431 1431 1431 1431 1431 1430 1430 1429 1429 1428 1427 1426 1425 1424 1422 1420 1419 1417 1415 1413 1411 1408 1406 1403 1400 1397 1395 1392 1389 1386 1384 1381 1379 1376 1374 1372 1370 1368
1427 1427 1427 1427 1427 1427 1426 1426 1426 1426 1426 1425 1425 1424 1423 1422 1421 1420 1419 1417 1415 1413 1412 1411 1409 1406 1404 1401 1399 1396 1393 1390 1387 1385 1382 1379 1377 1374 1372 1369 1367 1365 1363 1361
1423 1423 1423 1423 1423 1422 1422 1422 1421 1421 1420 1420 1419 1418 1417 1416 1415 1414 1412 1410 1408 1407 1405 1403 1401 1399 1397 1394 1392 1389 1386 1383 1380 1377 1375 1372 1370 1367 1365 1363 1360 1358 1356 1354
1419 1419 1419 1419 1418 1418 1418 1417 1416 1415 1415 1414 1413 1412 1410 1409 1408 1407 1405 1402 1401 1400 1398 1396 1393 1391 1389 1387 1384 1381 1379 1376 1373 1370 1368 1365 1363 1360 1358 1356 1354 1352 1350 1348
1416 1416 1415 1415 1414 1413 1413 1412 1411 1410 1409 1408 1407 1405 1404 1402 1401 1399 1397 1395 1394 1392 1390 1388 1386 1384 1381 1379 1376 1374 1371 1369 1366 1363 1361 1358 1356 1354 1351 1349 1347 1345 1343 1342
1412 1412 1411 1410 1409 1408 1407 1406 1405 1404 1402 1401 1399 1398 1397 1395 1393 1392 1389 1387 1386 1384 1382 1379 1378 1376 1374 1371 1368 1366 1364 1361 1359 1356 1354 1352 1349 1347 1345 1343 1341 1339 1337 1336
1408 1407 1406 1405 1404 1402 1400 1399 1398 1397 1395 1393 1392 1390 1389 1387 1384 1383 1381 1379 1377 1375 1373 1371 1370 1368 1366 1363 1361 1359 1356 1354 1351 1349 1347 1345 1342 1340 1338 1336 1334 1333 1331 1330
1402 1401 1400 1398 1397 1395 1393 1392 1390 1389 1387 1385 1384 1382 1381 1379 1377 1374 1373 1371 1369 1367 1365 1363 1361 1360 1358 1355 1353 1351 1349 1346 1344 1342 1340 1337 1335 1333 1331 1330 1328 1327 1325 1324
1396 1394 1393 1391 1390 1388 1387 1385 1383 1381 1379 1377 1375 1374 1373 1371 1369 1366 1364 1362 1361 1359 1357 1355 1353 1351 1350 1347 1345 1343 1341 1339 1337 1335 1333 1331 1329 1327 1325 1323 1322 1321 1320 1319
1389 1387 1385 1383 1382 1380 1379 1377 1375 1373 1372 1370 1367 1366 1365 1363 1361 1359 1357 1354 1353 1351 1349 1347 1345 1343 1342 1340 1338 1336 1334 1332 1330 1328 1326 1324 1322 1320 1319 1318 1316 1315 1314 1313